{"data":{"norad_id":52378,"epoch":"2026-09-20T01:55:35.505120Z","epoch_age_seconds":95928,"freshness":"FRESH","line1":"1 52378U 22045AZ  26263.08027205  .00003542  00000+0  11600-3 0  9995","line2":"2 52378  53.1614  27.3355 0001076  84.8704 275.2421 15.34379372245397","mean_motion":15.34379372,"eccentricity":0.0001076,"inclination_deg":53.1614,"raan_deg":27.3355,"arg_perigee_deg":84.8704,"mean_anomaly_deg":275.2421,"bstar":0.000116,"rev_number":24539,"period_min":93.849019758589,"perigee_km":462.02847065018,"apogee_km":463.50063266409,"semimajor_km":6840.9015516571,"source":"CELESTRAK","updated_at":"2026-09-20T09:00:40.030314Z"}}